This is the latest recevied weather packets stored in our database for station/object PU5BHV. If no packets are shown the sender has not sent any weather packets the latest 10 day(s).
| Time | Temp. | Humidity | Pressure | Rain* | Wind** | Luminosity | Snow |
|---|---|---|---|---|---|---|---|
| 1778182293 | 26.67° C | 83% | 1007.1 hPa | 0 mm | - | 45 W/m² | - |
| 1778181989 | 27.22° C | 82% | 1007.3 hPa | 0 mm | - | 55 W/m² | - |
| 1778181686 | 27.78° C | 80% | 1007 hPa | 0 mm | - | 55 W/m² | - |
| 1778181381 | 27.78° C | 80% | 1007.2 hPa | 0 mm | - | 53 W/m² | - |
| 1778181078 | 27.78° C | 79% | 1007.3 hPa | 0 mm | - | 94 W/m² | - |
| 1778180776 | 27.78° C | 79% | 1007.2 hPa | 0 mm | - | 76 W/m² | - |
| 1778180475 | 27.78° C | 80% | 1007.2 hPa | 0 mm | - | 66 W/m² | - |
| 1778180173 | 28.33° C | 78% | 1007.5 hPa | 0 mm | - | 182 W/m² | - |
| 1778179869 | 28.33° C | 78% | 1007.5 hPa | 0 mm | - | 75 W/m² | - |
| 1778179567 | 28.33° C | 76% | 1007.6 hPa | 0 mm | - | 216 W/m² | - |
| 1778179264 | 28.33° C | 78% | 1007.5 hPa | 0 mm | - | 188 W/m² | - |
| 1778178960 | 28.89° C | 76% | 1007.5 hPa | 0 mm | - | 177 W/m² | - |
| 1778178658 | 28.89° C | 74% | 1007.2 hPa | 0 mm | - | 152 W/m² | - |
| 1778178354 | 29.44° C | 74% | 1007.6 hPa | 0 mm | - | 108 W/m² | - |
| 1778178050 | 29.44° C | 72% | 1007.3 hPa | 0 mm | - | 217 W/m² | - |
| 1778177747 | 29.44° C | 72% | 1007.6 hPa | 0 mm | - | 180 W/m² | - |
| 1778177443 | 28.89° C | 74% | 1007.7 hPa | 0 mm | - | 291 W/m² | - |
| 1778177139 | 28.89° C | 74% | 1007.6 hPa | 0 mm | - | 333 W/m² | - |
| 1778176836 | 28.33° C | 76% | 1007.7 hPa | 0 mm | - | 337 W/m² | - |
| 1778176532 | 28.89° C | 74% | 1007.9 hPa | 0 mm | - | 78 W/m² | - |
| 1778176231 | 29.44° C | 73% | 1007.9 hPa | 0 mm | - | 348 W/m² | - |
| 1778175927 | 29.44° C | 70% | 1007.8 hPa | 0 mm | - | 189 W/m² | - |
| 1778175625 | 29.44° C | 71% | 1008.2 hPa | 0 mm | - | 327 W/m² | - |
| 1778175321 | 29.44° C | 71% | 1008.1 hPa | 0 mm | - | 125 W/m² | - |
| 1778175019 | 28.89° C | 73% | 1008.2 hPa | 0 mm | - | 431 W/m² | - |
* Rain latest hour (hover to see other rain measurements)
** Current wind speed in m/s (hover to see current wind gust speed)